Elkins, WV

3:17 PM EST on February 20, 2017 (GMT -0500)
Elkins-Randolph County

Weather History for KEKN - December, 2010

Change the Weather History Date:

Monday, December 20, 2010

  Actual Average Record
Temperature  
Mean Temperature 22 °F 31 °F  
Max Temperature 24 °F 41 °F 65 °F (1949)
Min Temperature 19 °F 22 °F -8 °F (1942)
Degree Days  
Heating Degree Days 43 34  
Month to date heating degree days 850 626  
Since 1 July heating degree days 2037 1910  
Cooling Degree Days 0 0  
Month to date cooling degree days 0 0  
Year to date cooling degree days 715 475  
Moisture  
Dew Point 15 °F    
Average Humidity 80    
Maximum Humidity 88    
Minimum Humidity 71    
Precipitation  
Precipitation T in 0.09 in 1.30 in (1978)
Month to date precipitation 1.76 2.17  
Year to date precipitation 39.36 44.84  
Snow  
Snow 0.30 in - - ()
Month to date snowfall 23.7  
Since 1 September snowfall 23.7  
Snow Depth 5.00 in    
Sea Level Pressure  
Sea Level Pressure 30.13 in    
Wind  
Wind Speed 4 mph (WNW)    
Max Wind Speed 12 mph    
Max Gust Speed 15 mph    
Visibility 6 miles    
Events Snow    
T = Trace of Precipitation, MM = Missing Value Source: NWS Daily Summary

Daily Weather History Graph

Daily Weather History Graph

Search for Another Location

Airport or City:

Trip Planner

Search our weather history database for the weather conditions in past years. The results will help you decide how hot, cold, wet, or windy it might be!

Date:

Astronomy

Dec. 20, 2010 Rise Set
Actual Time 7:33 AM EST 5:00 PM EST
Civil Twilight 7:03 AM EST 5:30 PM EST
Nautical Twilight 6:30 AM EST 6:03 PM EST
Astronomical Twilight 5:57 AM EST 6:36 PM EST
Moon 4:27 PM EST 6:54 AM EST
Length of Visible Light 10h 26m
Length of Day
9h 26m
Waxing Gibbous, 99% of the Moon is Illuminated
Dec 20
Waxing Gibbous
Dec 21
Full
Dec 27
Last Quarter
Jan 4
New
Jan 12
First Quarter

Hourly Weather History & Observations

Time (EST) Temp. Windchill Dew Point Humidity Pressure Visibility Wind Dir Wind Speed Gust Speed Precip Events Conditions
12:51 AM 21.0 °F - 14.0 °F 74% 30.11 in 7.0 mi Calm Calm - 0.00 in   Overcast
1:51 AM 21.0 °F - 15.1 °F 78% 30.12 in 9.0 mi Calm Calm - N/A   Overcast
2:51 AM 21.0 °F 11.4 °F 14.0 °F 74% 30.13 in 10.0 mi WNW 8.1 mph - N/A   Overcast
3:51 AM 19.9 °F 12.1 °F 12.9 °F 74% 30.13 in 10.0 mi West 5.8 mph - N/A   Overcast
4:51 AM 19.9 °F 11.1 °F 12.9 °F 74% 30.13 in 10.0 mi West 6.9 mph - N/A   Overcast
5:38 AM 19.4 °F 10.4 °F 12.2 °F 74% 30.04 in 10.0 mi WNW 6.9 mph - N/A   Overcast
5:48 AM 19.4 °F 11.5 °F 14.0 °F 80% 30.05 in 10.0 mi West 5.8 mph - N/A   Overcast
5:51 AM 19.0 °F 12.3 °F 14.0 °F 81% 30.15 in 10.0 mi West 4.6 mph - N/A   Overcast
5:59 AM 19.4 °F 12.8 °F 12.2 °F 74% 30.04 in 10.0 mi West 4.6 mph - N/A   Overcast
6:51 AM 19.9 °F - 12.9 °F 74% 30.14 in 8.0 mi Calm Calm - 0.00 in   Overcast
7:51 AM 19.9 °F 13.4 °F 12.9 °F 74% 30.14 in 8.0 mi West 4.6 mph - 0.00 in   Overcast
8:51 AM 19.9 °F 13.4 °F 12.9 °F 74% 30.18 in 4.0 mi WNW 4.6 mph - 0.00 in Snow Light Snow
9:51 AM 21.0 °F 14.6 °F 14.0 °F 74% 30.21 in 6.0 mi WNW 4.6 mph - 0.00 in   Haze
10:23 AM 21.2 °F 14.9 °F 14.0 °F 74% 30.11 in 2.5 mi WNW 4.6 mph - 0.00 in Snow Light Snow
10:36 AM 21.2 °F 13.6 °F 15.8 °F 80% 30.11 in 3.0 mi NW 5.8 mph - N/A Snow Light Snow
10:51 AM 21.9 °F 15.7 °F 14.0 °F 72% 30.22 in 3.0 mi West 4.6 mph - 0.00 in Snow Light Snow
11:33 AM 21.2 °F 11.7 °F 15.8 °F 80% 30.09 in 4.0 mi WNW 8.1 mph - 0.00 in Snow Light Snow
11:46 AM 23.0 °F 14.7 °F 15.8 °F 74% 30.09 in 2.5 mi WNW 6.9 mph - 0.00 in Snow Light Snow
11:51 AM 21.9 °F 14.5 °F 15.1 °F 75% 30.19 in 2.5 mi WNW 5.8 mph - 0.00 in Snow Light Snow
12:00 PM 23.0 °F 17.0 °F 15.8 °F 74% 30.09 in 3.0 mi WNW 4.6 mph - 0.00 in Snow Light Snow
12:05 PM 23.0 °F 17.0 °F 15.8 °F 74% 30.08 in 2.5 mi West 4.6 mph - 0.00 in Snow Light Snow
12:15 PM 23.0 °F 17.0 °F 15.8 °F 74% 30.08 in 1.8 mi WNW 4.6 mph - 0.00 in Snow Light Snow
12:23 PM 23.0 °F 15.8 °F 15.8 °F 74% 30.08 in 1.8 mi WNW 5.8 mph - 0.00 in Snow Light Snow
12:51 PM 23.0 °F 14.7 °F 16.0 °F 74% 30.17 in 1.8 mi WNW 6.9 mph - 0.00 in Snow Light Snow
1:51 PM 24.1 °F 16.0 °F 17.1 °F 75% 30.16 in 1.5 mi NW 6.9 mph - 0.00 in Snow Light Snow
2:51 PM 24.1 °F 18.2 °F 17.1 °F 75% 30.17 in 2.0 mi Variable 4.6 mph - 0.00 in Snow Light Snow
2:59 PM 24.8 °F 17.9 °F 15.8 °F 69% 30.07 in 1.8 mi NNW 5.8 mph - 0.00 in Snow Light Snow
3:51 PM 24.1 °F 18.2 °F 18.0 °F 77% 30.19 in 1.2 mi NNW 4.6 mph - 0.00 in Snow Light Snow
4:51 PM 23.0 °F - 19.0 °F 85% 30.21 in 1.0 mi Calm Calm - 0.00 in Snow Light Snow
5:10 PM 24.8 °F 20.5 °F 17.6 °F 74% 30.11 in 2.0 mi Variable 3.5 mph - 0.00 in Snow Light Snow
5:32 PM 23.0 °F - 17.6 °F 80% 30.10 in 4.0 mi Calm Calm - 0.00 in Snow Light Snow
5:51 PM 23.0 °F 18.4 °F 18.0 °F 81% 30.21 in 4.0 mi West 3.5 mph - 0.00 in Snow Light Snow
6:26 PM 24.8 °F 16.9 °F 17.6 °F 74% 30.11 in 4.0 mi WNW 6.9 mph - 0.00 in Snow Light Snow
6:51 PM 24.1 °F 18.2 °F 18.0 °F 77% 30.20 in 7.0 mi WNW 4.6 mph - 0.00 in   Overcast
7:51 PM 23.0 °F 15.8 °F 17.6 °F 80% 30.09 in 10.0 mi WNW 5.8 mph - N/A   Overcast
8:51 PM 23.0 °F 17.0 °F 17.1 °F 78% 30.18 in 10.0 mi WNW 4.6 mph - N/A   Overcast
9:51 PM 23.0 °F 15.8 °F 15.1 °F 72% 30.19 in 10.0 mi NW 5.8 mph - N/A   Overcast
10:51 PM 23.0 °F - 16.0 °F 74% 30.19 in 10.0 mi Calm Calm - N/A   Overcast
11:51 PM 23.0 °F 17.0 °F 17.1 °F 78% 30.18 in 10.0 mi WNW 4.6 mph - N/A   Overcast